{"data":{"norad_id":37191,"intl_designator":"2010-054D","name":"GLOBALSTAR M077","alt_names":[],"object_type":"PAYLOAD","status":"ACTIVE","operator":null,"country":"GLOB","launch_date":"2010-10-19","launch_site_code":"TYMSC","launch_vehicle":null,"mission":null,"orbit_class":"UNKNOWN","rcs_meters":4.7854,"size_class":null,"mass_kg":null,"dimensions":null,"purposes":["comms"],"wikipedia_slug":null,"has_3d_model":false,"image_url":null,"decayed_at":null,"tle_current":{"epoch":"2026-05-25T03:57:38.719008Z","epoch_age_seconds":63951,"freshness":"FRESH","line1":"1 37191U 10054D   26145.16503147 -.00000072  00000+0  11121-3 0  9994","line2":"2 37191  51.9954 237.7300 0003090 132.4311 232.4770 11.67547249718451","mean_motion":11.67547249,"eccentricity":0.000309,"inclination_deg":51.9954,"raan_deg":237.73,"arg_perigee_deg":132.4311,"mean_anomaly_deg":232.477,"bstar":0.00011121,"rev_number":71845,"period_min":123.33547967616,"perigee_km":1826.9775210976,"apogee_km":1832.049849221,"semimajor_km":8207.6506851593,"source":"CELESTRAK","updated_at":"2026-05-25T13:38:23.040697Z"}}}